Temp
-1 -1 -2 -2 -3 -4 -4 -4 -3 -3 -3 -2 -2 -2 -1 -1 -0 0 1 2 3 4 4 5 5 6 6 6 7 7 7 8 8 8 8 9 9 9 9 9 9 9 9 9 9 9 8
-1 -1 -1 -2 -2 -3 -3 -3 -2 -2 -2 -2 -2 -2 -1 -0 0 1 2 2 3 4 4 5 5 5 6 6 6 7 7 7 8 8 8 8 9 8 8 8 8 8 8 8 8 8 8
-0 -1 -0 -1 -1 -2 -2 -2 -2 -2 -2 -2 -2 -1 -1 0 1 1 2 3 3 4 4 5 5 5 5 6 6 6 7 7 7 7 8 8 8 8 7 7 7 7 7 8 8 8 8
-0 -0 -1 -0 -0 -0 -1 -2 -2 -2 -2 -2 -1 -1 0 0 1 1 2 3 3 3 4 4 5 5 6 6 6 6 6 7 7 7 7 7 7 7 7 7 7 7 7 7 7 7 7
0 0 -0 -0 -0 0 0 -1 -1 -1 -1 -1 -1 -1 0 0 1 1 2 2 3 3 4 4 4 5 5 5 5 6 6 6 6 6 6 7 7 7 6 7 7 7 6 6 6 5 5
0 0 0 0 -0 -0 -0 -0 -0 -0 -0 -1 -1 -1 -0 0 0 1 1 2 2 3 3 4 4 5 4 5 5 5 5 6 6 6 6 6 6 6 7 6 6 5 5 5 5 4 5
2 1 1 0 0 0 -0 -0 -0 0 0 -0 -0 -0 0 0 1 1 1 2 2 2 3 3 4 5 5 5 5 5 5 5 6 6 6 6 6 6 6 5 5 4 5 5 4 4 5
3 2 2 1 1 1 0 0 0 0 0 1 1 1 0 0 1 1 1 2 2 3 3 3 3 4 4 4 5 5 5 5 5 6 5 5 5 5 5 4 4 4 4 4 4 4 4
3 2 2 2 2 2 1 1 1 1 1 1 1 1 2 2 1 2 2 2 2 2 3 3 3 3 3 4 4 4 4 4 4 5 5 4 4 4 4 4 4 4 3 3 2 4 4
3 2 2 2 2 2 2 2 2 1 1 1 1 1 2 2 2 2 2 2 3 3 3 2 2 3 3 3 3 4 4 4 4 4 4 4 4 4 4 4 3 3 3 2 2 2 1
3 3 3 2 2 2 2 2 2 2 2 1 1 1 1 2 2 2 2 2 3 3 -0 2 2 2 3 3 3 3 3 4 4 4 3 3 3 3 3 3 2 3 2 2 2 1 1
3 3 3 3 3 3 2 2 2 2 2 2 2 2 2 2 2 2 2 3 3 3 0 2 2 2 3 3 3 3 3 3 3 3 3 3 3 3 2 2 2 2 2 3 0 -0 -2
3 3 3 3 3 3 3 3 3 2 2 3 2 2 2 3 3 3 3 3 3 2 2 2 2 3 3 3 3 3 3 3 3 3 3 3 3 2 2 2 2 2 2 2 -2 -3 -2
4 4 4 4 3 3 4 3 3 3 3 3 2 3 3 3 3 3 3 3 3 1 1 2 2 2 2 3 3 3 3 3 3 2 2 1 1 2 1 1 1 1 1 1 -5 -5 -3
4 4 4 4 4 4 4 4 4 4 3 3 3 3 3 3 3 3 3 3 2 2 2 2 2 2 2 2 3 3 3 2 2 2 2 2 1 2 1 1 1 0 1 -0 -1 -2 -4
5 4 4 4 4 4 4 4 4 4 4 4 4 3 3 3 3 3 3 3 3 3 2 2 2 2 2 3 3 3 3 2 2 2 1 1 1 1 1 1 1 1 -0 -1 -2 -7 -7
5 5 5 5 5 4 4 5 5 4 4 4 4 4 4 4 4 4 4 3 3 2 2 2 2 2 1 2 2 2 2 2 1 1 1 1 0 1 1 1 1 -0 -1 -1 -1 -2 -6
5 5 5 5 5 5 5 4 5 5 5 4 5 4 4 4 4 4 4 3 3 2 2 2 2 2 2 2 1 1 1 1 1 1 1 0 -0 -0 -1 -0 -1 -1 -1 -2 -2 -3 -3
5 5 5 5 5 5 5 5 5 5 5 5 5 4 4 4 4 4 3 3 3 3 3 2 2 2 2 1 1 1 1 1 1 0 0 -0 -1 -0 -1 -1 0 -0 0 -1 -2 -4 -3
5 5 5 5 5 5 5 5 5 5 5 5 5 5 4 4 4 4 3 3 3 3 3 2 2 2 2 2 1 1 1 0 0 0 -1 -1 -1 -0 0 0 -1 -1 -1 -2 -2 -4 -3
5 5 5 5 5 5 5 5 5 4 5 4 4 4 4 4 4 4 4 3 3 2 2 2 2 2 1 1 0 1 1 1 0 -0 -1 -1 -1 -1 -1 -0 -0 -1 -2 -3 -4 -2 -3
4 4 5 4 5 5 5 5 5 4 4 4 4 4 4 3 3 3 3 3 3 3 3 2 2 2 1 1 0 -1 -1 -1 -2 -1 -2 -2 -2 -3 -1 -0 -1 -1 1 -0 -2 -3 -3
4 4 4 4 4 4 4 5 5 4 4 4 4 4 3 3 3 3 3 2 2 2 2 2 2 2 2 1 1 -0 -1 -2 -2 -2 -3 -4 -4 -4 -3 -2 -3 -1 3 2 1 1 1
4 4 3 4 4 4 4 4 4 4 4 3 3 3 3 4 3 3 3 2 2 2 2 2 2 2 1 1 0 1 0 -0 -1 -2 -3 -4 -5 -6 -4 -3 -4 1 2 1 1 1 0
3 3 3 3 3 3 3 3 3 3 3 3 3 3 3 3 3 3 3 2 2 2 2 2 1 1 0 -0 -0 -0 -0 0 1 0 -0 -2 -5 -5 -5 -5 -1 2 2 2 0 1 0
2 2 2 2 2 2 2 2 2 2 2 2 2 2 2 2 2 2 2 2 2 2 2 2 1 1 -0 -1 -1 -2 -1 -1 -1 0 -0 -1 -3 -5 -5 -6 -4 1 1 -1 -1 -1 -0
1 1 1 2 2 2 1 1 1 1 1 1 1 1 1 1 1 1 0 1 1 1 0 1 1 0 -1 -1 -2 -2 -1 -1 -1 -1 -0 -1 -3 -3 -5 -6 -4 0 -0 -1 -2 -1 -1
0 -0 0 0 1 1 1 1 0 0 0 1 1 1 0 1 1 1 1 1 1 0 -0 -0 -1 0 -0 -1 -2 -1 -2 -2 -2 -2 -1 -1 -1 -3 -5 -6 -5 -0 -1 -1 -1 -1 -2
-0 -1 -1 -1 -1 -1 -0 -0 -0 -0 -0 -0 -0 -0 0 0 1 0 1 1 0 0 1 -0 -1 -1 -2 -2 -2 -3 -3 -2 -2 -3 -1 -2 -0 -1 -2 -0 -1 -1 -1 -2 -2 -3 -3
Height
3073 3066 3062 3059 3056 3055 3055 3056 3056 3058 3061 3064 3066 3071 3075 3078 3080 3085 3089 3092 3097 3102 3107 3112 3117 3121 3126 3130 3134 3137 3140 3143 3146 3149 3151 3154 3156 3157 3159 3161 3162 3163 3163 3163 3164 3163 3163
3080 3074 3070 3069 3065 3064 3064 3063 3064 3066 3068 3070 3074 3077 3079 3081 3084 3088 3092 3096 3100 3104 3109 3114 3119 3123 3127 3132 3135 3137 3140 3144 3146 3149 3151 3153 3155 3157 3158 3160 3161 3161 3161 3161 3161 3160 3159
3088 3083 3079 3077 3076 3074 3073 3071 3075 3076 3078 3080 3081 3082 3083 3085 3088 3091 3096 3100 3104 3108 3112 3116 3121 3125 3129 3133 3135 3138 3141 3144 3146 3149 3151 3153 3154 3156 3157 3158 3159 3159 3159 3159 3157 3156 3155
3095 3092 3088 3085 3083 3083 3082 3082 3082 3083 3085 3086 3087 3087 3088 3090 3092 3095 3099 3103 3107 3111 3115 3119 3123 3127 3130 3133 3136 3139 3142 3144 3146 3148 3150 3152 3153 3155 3155 3157 3157 3158 3157 3155 3153 3152 3150
3102 3099 3097 3094 3092 3090 3090 3090 3089 3089 3089 3090 3091 3092 3094 3096 3098 3100 3103 3106 3110 3114 3117 3121 3125 3128 3131 3134 3137 3140 3142 3144 3147 3148 3150 3151 3153 3153 3154 3155 3156 3155 3154 3155 3151 3150 3148
3108 3106 3104 3102 3100 3099 3098 3097 3098 3098 3099 3099 3099 3099 3100 3102 3104 3106 3108 3111 3113 3117 3120 3123 3127 3132 3133 3135 3137 3140 3142 3144 3146 3148 3150 3151 3151 3152 3153 3153 3153 3153 3153 3152 3151 3147 3142
3115 3113 3111 3109 3108 3106 3105 3104 3104 3104 3105 3106 3106 3107 3107 3108 3109 3112 3114 3115 3121 3123 3124 3126 3129 3130 3133 3136 3139 3141 3143 3144 3146 3147 3148 3149 3150 3150 3150 3151 3151 3151 3150 3148 3147 3145 3137
3121 3119 3118 3116 3114 3113 3112 3111 3110 3110 3109 3110 3112 3112 3113 3114 3115 3117 3119 3121 3122 3126 3127 3128 3131 3132 3135 3137 3139 3141 3144 3145 3145 3146 3146 3148 3147 3149 3149 3149 3149 3148 3147 3145 3143 3140 3137
3125 3124 3123 3121 3120 3119 3118 3117 3116 3115 3115 3115 3115 3116 3118 3119 3121 3122 3123 3125 3126 3128 3129 3133 3133 3135 3137 3139 3139 3141 3143 3143 3145 3145 3145 3146 3148 3148 3147 3147 3147 3146 3145 3143 3140 3135 3135
3129 3127 3126 3125 3124 3123 3123 3122 3121 3120 3120 3119 3120 3120 3121 3122 3126 3125 3127 3128 3130 3131 3133 3137 3137 3138 3139 3139 3141 3142 3143 3146 3145 3145 3145 3146 3146 3146 3145 3145 3145 3144 3143 3141 3137 3134 3132
3134 3132 3130 3128 3128 3127 3127 3126 3126 3125 3125 3125 3125 3124 3125 3126 3126 3128 3130 3131 3132 3133 3135 3141 3138 3139 3140 3142 3143 3142 3144 3144 3144 3144 3147 3146 3145 3145 3144 3144 3143 3142 3141 3138 3134 3131 3130
3139 3137 3135 3132 3131 3130 3130 3129 3129 3128 3128 3128 3128 3128 3129 3129 3129 3130 3131 3132 3134 3136 3136 3138 3138 3139 3141 3141 3142 3143 3144 3144 3144 3144 3144 3144 3144 3144 3143 3142 3141 3140 3138 3134 3130 3130 3130
3145 3143 3140 3137 3135 3133 3132 3132 3132 3131 3131 3131 3130 3130 3130 3131 3131 3131 3132 3133 3135 3134 3139 3140 3139 3140 3141 3142 3143 3143 3144 3144 3144 3144 3143 3142 3141 3141 3140 3140 3139 3138 3137 3133 3135 3133 3130
3151 3149 3146 3143 3141 3138 3136 3135 3134 3133 3133 3132 3131 3131 3131 3131 3131 3131 3132 3134 3134 3136 3137 3138 3139 3140 3142 3142 3143 3143 3143 3143 3143 3142 3142 3141 3140 3139 3139 3139 3139 3136 3136 3138 3145 3138 3129
3156 3154 3151 3149 3146 3143 3141 3139 3137 3136 3135 3135 3134 3132 3132 3132 3132 3132 3134 3133 3134 3135 3137 3139 3140 3141 3141 3142 3143 3142 3141 3141 3141 3141 3142 3140 3138 3138 3137 3136 3138 3135 3136 3138 3136 3133 3132
3160 3158 3156 3153 3151 3148 3146 3143 3141 3139 3138 3137 3136 3135 3134 3133 3133 3133 3134 3134 3134 3136 3137 3139 3140 3140 3141 3141 3142 3141 3140 3140 3140 3140 3139 3139 3137 3135 3134 3134 3135 3135 3137 3136 3135 3138 3136
3163 3161 3159 3157 3155 3153 3151 3148 3146 3144 3142 3140 3139 3138 3137 3136 3135 3135 3135 3135 3137 3138 3139 3140 3140 3140 3140 3140 3139 3139 3139 3140 3139 3139 3138 3137 3136 3135 3134 3132 3131 3132 3132 3132 3133 3132 3132
3165 3164 3162 3160 3158 3156 3155 3153 3150 3148 3145 3145 3143 3141 3139 3138 3140 3137 3137 3137 3138 3139 3139 3140 3140 3140 3140 3140 3139 3139 3139 3138 3138 3137 3136 3136 3134 3132 3130 3129 3128 3128 3128 3129 3130 3130 3128
3166 3164 3163 3162 3160 3158 3157 3155 3154 3152 3149 3148 3146 3145 3144 3142 3141 3140 3139 3139 3139 3139 3140 3140 3139 3139 3139 3139 3140 3138 3137 3137 3137 3136 3135 3135 3133 3131 3128 3129 3126 3124 3125 3126 3126 3125 3120
3166 3164 3163 3162 3161 3159 3157 3156 3155 3154 3152 3151 3149 3148 3147 3145 3144 3143 3142 3141 3141 3140 3140 3140 3140 3140 3140 3139 3139 3138 3137 3136 3135 3135 3134 3133 3130 3130 3127 3125 3123 3120 3120 3121 3121 3119 3113
3164 3163 3162 3160 3159 3159 3158 3156 3154 3153 3152 3152 3150 3149 3148 3147 3145 3144 3143 3142 3142 3142 3141 3140 3140 3140 3139 3138 3137 3136 3135 3134 3133 3131 3130 3129 3125 3124 3121 3119 3118 3115 3112 3111 3107 3106 3104
3162 3161 3160 3159 3158 3156 3156 3155 3153 3152 3151 3151 3150 3150 3148 3147 3145 3144 3143 3142 3141 3141 3141 3140 3139 3138 3138 3137 3136 3133 3131 3130 3128 3127 3126 3124 3121 3119 3112 3111 3109 3105 3102 3101 3099 3097 3094
3157 3156 3156 3155 3155 3154 3153 3152 3150 3149 3149 3148 3147 3146 3146 3145 3144 3144 3143 3142 3140 3140 3139 3138 3137 3136 3135 3135 3132 3130 3129 3127 3125 3121 3121 3120 3119 3117 3108 3108 3106 3099 3091 3090 3090 3090 3090
3152 3151 3150 3150 3150 3150 3149 3148 3147 3146 3145 3145 3144 3144 3143 3142 3141 3141 3140 3139 3138 3137 3137 3136 3135 3133 3133 3130 3128 3126 3123 3121 3118 3117 3117 3116 3115 3116 3109 3106 3103 3093 3091 3090 3086 3086 3085
3145 3145 3145 3144 3143 3143 3143 3143 3142 3141 3141 3140 3139 3139 3138 3137 3137 3137 3136 3136 3135 3134 3133 3131 3131 3130 3128 3126 3124 3120 3117 3116 3113 3112 3111 3111 3113 3113 3110 3106 3097 3088 3086 3084 3082 3083 3081
3138 3138 3139 3139 3138 3137 3136 3136 3136 3136 3136 3135 3135 3134 3134 3133 3132 3132 3130 3130 3129 3128 3127 3127 3126 3126 3124 3122 3121 3118 3116 3114 3111 3108 3106 3107 3107 3108 3106 3106 3096 3084 3083 3081 3079 3074 3073
3128 3130 3131 3131 3131 3131 3130 3129 3129 3130 3130 3130 3129 3130 3129 3128 3128 3127 3126 3125 3124 3123 3121 3119 3120 3119 3119 3118 3117 3115 3113 3112 3109 3105 3103 3103 3101 3099 3100 3097 3084 3080 3079 3078 3077 3076 3069
3119 3120 3122 3122 3122 3124 3124 3123 3122 3122 3123 3124 3123 3122 3122 3122 3123 3121 3121 3120 3119 3119 3117 3116 3115 3112 3111 3110 3111 3110 3107 3106 3103 3100 3099 3100 3099 3094 3092 3091 3080 3074 3075 3078 3075 3068 3066
3109 3110 3112 3112 3113 3114 3115 3115 3115 3116 3115 3115 3116 3114 3113 3114 3116 3113 3113 3114 3113 3111 3109 3107 3108 3107 3108 3107 3105 3102 3101 3098 3097 3095 3094 3091 3091 3087 3084 3078 3075 3072 3071 3069 3066 3062 3058
Wind_Speed
39 34 32 28 23 24 25 25 19 25 29 21 25 20 25 24 23 21 23 26 27 26 24 23 21 21 19 18 13 17 16 15 14 13 12 11 11 10 10 9 10 12 12 14 15 17 18
38 38 37 40 30 26 31 29 22 23 26 26 25 20 23 23 25 25 25 26 26 26 24 22 20 19 19 17 13 15 14 14 13 12 11 10 10 9 8 9 9 10 11 13 15 18 20
35 38 37 36 35 26 26 27 25 26 23 19 18 18 21 24 25 26 26 26 25 25 24 21 19 18 15 15 12 14 14 13 12 12 10 9 9 8 7 7 9 11 13 14 17 18 20
34 34 35 37 36 36 27 24 23 20 18 17 18 19 21 23 25 27 27 26 24 23 22 21 19 18 15 15 12 13 13 12 12 11 10 9 7 7 7 9 11 12 12 11 14 17 23
32 33 32 32 34 35 33 28 25 22 21 19 18 20 20 22 25 27 28 27 26 24 22 21 19 16 16 14 14 13 13 12 11 10 9 8 8 8 9 10 9 8 8 8 16 19 24
30 30 30 30 28 29 30 30 28 25 22 20 18 18 19 20 22 25 27 27 26 24 22 20 17 14 16 15 14 13 12 11 10 9 8 8 8 8 9 8 5 5 9 12 14 22 30
31 29 28 28 26 26 25 24 24 24 22 21 20 19 19 20 20 21 23 24 22 20 20 11 16 8 16 14 13 12 11 10 10 9 8 8 8 9 8 8 8 11 13 17 17 23 31
29 29 29 27 25 23 22 21 21 20 20 20 18 19 18 18 17 18 17 16 16 19 13 14 7 13 13 12 10 10 9 8 9 9 8 8 10 8 9 9 10 12 14 15 21 20 28
24 25 26 27 26 26 24 21 20 19 19 19 19 17 16 16 15 14 13 12 14 9 11 10 6 9 8 8 6 7 6 7 6 7 7 8 7 8 9 10 11 12 14 15 20 26 21
21 20 21 22 23 23 22 23 23 22 20 18 17 17 16 16 16 15 14 13 10 7 6 5 3 4 3 4 3 3 3 4 5 5 6 6 7 9 9 11 11 12 11 16 21 22 10
26 22 19 18 18 18 19 19 18 17 18 18 17 15 15 15 16 16 13 10 8 6 3 0 2 5 1 1 1 2 3 4 5 5 6 7 9 9 10 10 10 12 13 18 22 16 13
28 26 23 20 17 15 14 14 14 15 13 12 11 10 10 10 11 10 8 7 4 1 2 2 3 2 2 1 1 1 1 3 3 5 6 7 8 9 9 10 11 12 13 19 10 6 2
30 29 27 24 21 19 16 13 11 10 10 9 8 7 6 5 4 4 5 4 2 3 4 5 5 3 2 1 1 1 0 1 3 5 4 8 10 11 10 10 8 8 15 6 4 3 4
27 28 28 28 26 21 19 17 14 12 10 8 6 4 3 3 3 4 4 5 2 5 4 7 7 5 3 3 2 1 4 6 6 6 7 4 5 4 4 5 7 13 4 1 4 2 5
22 24 26 27 27 26 21 18 18 15 14 12 11 9 6 5 4 4 6 3 5 6 9 7 5 4 3 2 2 4 6 7 6 4 3 4 4 7 10 11 9 4 3 3 5 6 4
20 20 21 22 24 26 25 22 18 18 16 14 13 12 11 8 6 5 3 4 7 10 10 8 3 3 2 2 4 4 4 3 3 3 4 4 7 8 6 7 7 9 6 2 3 2 4
17 17 17 18 19 21 22 23 22 18 18 15 12 12 13 11 9 5 5 9 9 6 3 3 2 2 3 3 3 4 3 5 4 4 6 9 6 7 11 7 9 8 7 6 5 5 3
16 16 15 15 15 15 17 19 19 18 16 17 15 16 11 11 7 8 8 7 5 3 2 1 1 2 3 4 5 4 4 4 6 8 9 7 7 8 12 15 15 15 12 10 5 4 7
15 16 15 15 14 13 13 13 14 15 16 16 11 15 14 11 9 9 8 7 5 4 4 4 3 3 4 5 5 5 6 7 10 9 6 9 5 7 7 8 6 10 8 11 14 15 18
13 13 14 15 15 14 12 11 11 12 11 12 11 10 11 12 11 9 6 7 6 5 3 5 4 5 6 7 7 7 12 10 8 10 13 15 13 13 12 8 16 23 25 21 19 13 14
16 16 14 13 14 14 15 13 11 10 10 10 9 8 7 9 9 9 8 6 7 6 5 5 5 6 7 7 12 8 10 13 16 17 16 13 18 18 23 26 25 30 32 30 32 34 23
20 20 19 18 16 14 13 14 13 12 11 11 9 9 9 7 7 6 6 6 6 6 5 5 7 8 9 10 11 15 17 17 17 16 15 18 16 21 35 23 14 23 24 25 31 37 38
24 23 23 23 22 20 17 16 15 14 13 12 12 12 10 10 9 9 8 5 7 6 4 8 11 11 11 13 16 18 17 18 21 26 23 21 15 13 13 12 21 25 17 17 20 14 21
28 27 25 25 25 25 23 20 19 18 16 15 14 13 13 13 11 11 12 8 11 9 11 13 15 11 12 16 19 17 18 18 19 22 22 19 18 10 16 15 3 6 12 17 25 21 16
30 31 30 27 26 26 26 25 22 21 20 18 16 15 15 16 15 14 10 14 13 12 16 19 13 12 15 17 19 12 14 11 9 10 12 14 15 9 6 8 23 20 11 10 7 17 25
32 32 32 31 29 26 25 25 26 25 23 21 20 19 18 17 18 14 18 15 16 19 21 15 13 20 20 20 16 6 5 5 6 6 8 10 13 15 6 5 5 10 20 20 24 27 12
31 32 32 31 32 30 29 26 25 26 26 25 23 22 22 21 20 16 17 21 21 21 18 22 25 22 20 21 17 12 12 13 8 8 8 12 14 24 22 12 17 25 23 21 10 9 13
33 32 33 31 32 32 31 30 28 26 26 27 25 24 25 26 24 24 21 15 15 23 28 28 29 27 18 14 11 12 12 12 15 19 19 17 12 14 13 11 14 7 8 15 21 22 21
35 34 33 32 31 31 32 31 30 30 28 27 28 27 28 27 26 27 29 27 30 31 33 34 30 28 19 16 13 11 14 17 19 16 19 19 29 23 22 23 25 26 26 36 37 41 43
Wind_Direction
47 62 67 62 73 80 93 94 104 123 141 129 129 113 114 125 130 135 143 147 150 151 154 158 162 163 164 166 166 166 168 172 175 179 179 189 195 205 217 230 243 252 262 270 278 283 286
51 57 63 76 73 84 83 83 92 107 109 116 122 119 119 124 131 135 141 144 146 148 152 155 160 163 165 163 162 169 171 174 180 187 192 199 208 219 231 244 259 273 278 282 285 288 290
56 62 64 69 82 72 85 88 78 79 89 102 104 113 122 124 127 132 137 140 143 145 148 152 156 159 161 168 164 169 177 180 186 187 198 203 212 226 241 258 267 275 282 287 288 293 292
60 62 65 65 68 78 88 92 88 94 96 99 105 112 115 122 127 131 133 135 137 139 142 146 150 153 161 163 164 168 173 182 187 191 195 201 209 232 252 263 273 284 293 302 307 298 298
64 65 65 68 72 73 76 79 79 77 77 85 96 106 114 124 130 131 133 135 135 137 139 142 147 156 153 158 164 169 175 179 186 190 197 209 226 247 260 270 282 290 291 305 290 300 299
64 66 69 68 70 75 79 80 79 79 81 84 92 103 114 122 130 134 135 136 137 138 142 143 147 148 156 161 166 173 177 182 191 202 220 234 242 246 257 262 252 246 261 267 288 302 301
62 66 69 72 72 73 76 82 87 89 83 84 87 94 109 118 125 130 135 137 134 134 140 135 146 156 159 164 170 181 187 195 206 218 230 239 247 251 264 271 275 282 289 295 298 296 301
63 65 65 70 73 74 76 81 87 89 96 95 91 93 94 104 113 120 126 134 132 135 132 139 120 151 160 169 178 185 196 209 217 225 233 241 256 273 280 286 290 295 300 298 309 304 312
63 64 67 66 67 73 75 78 81 88 92 97 101 99 101 104 105 112 110 118 124 121 118 126 117 156 169 177 192 203 211 224 242 246 255 266 278 284 283 288 296 302 305 309 310 317 321
60 63 65 68 68 64 68 74 74 78 86 96 101 102 108 114 112 114 113 111 108 116 104 102 104 127 167 186 186 216 241 253 278 290 296 292 288 284 288 292 300 304 305 309 310 320 320
60 56 58 60 64 69 69 66 70 77 78 81 89 102 109 116 119 118 119 116 113 106 80 73 132 150 136 198 221 295 293 294 297 297 285 282 296 290 287 295 299 298 311 312 308 314 320
62 59 56 56 55 56 62 69 73 68 69 84 90 95 104 114 120 124 124 128 130 350 56 127 155 156 164 171 296 306 285 297 308 296 285 283 286 286 283 286 294 305 315 315 311 318 346
59 60 58 55 52 53 53 54 59 70 78 70 69 88 105 129 159 167 156 148 143 68 162 144 132 131 144 128 97 109 135 306 305 325 322 300 284 279 276 287 301 320 330 334 345 350 225
57 57 56 56 56 52 51 50 52 53 57 68 77 76 78 106 141 176 174 168 96 136 153 157 148 144 149 155 167 265 293 291 292 296 297 291 295 323 305 291 302 320 354 78 224 289 289
53 51 51 54 54 55 54 53 49 45 45 51 56 63 76 89 102 153 157 134 147 157 148 145 136 152 155 160 288 299 289 290 298 298 274 296 278 297 293 292 301 306 303 257 268 283 303
41 42 45 46 48 51 52 53 53 48 44 43 46 51 58 64 73 106 140 112 135 141 148 152 149 183 227 268 282 291 286 280 290 280 283 287 295 303 319 305 290 261 263 258 257 10 291
30 32 35 36 37 40 45 46 49 51 49 46 47 50 41 44 51 58 83 110 129 137 151 196 201 182 243 290 274 287 265 292 298 308 313 314 285 287 299 280 283 262 251 232 234 225 208
19 20 17 24 28 29 29 34 40 44 46 48 50 53 40 43 45 53 69 83 94 97 82 69 341 323 316 331 312 295 268 273 294 300 304 303 287 287 287 297 284 275 261 235 215 223 238
359 360 5 7 8 15 19 17 21 30 37 41 40 50 47 43 51 52 58 60 57 43 27 7 353 353 339 341 331 322 313 317 309 304 312 312 291 313 288 284 273 261 262 248 231 254 241
338 341 345 347 349 351 357 4 3 2 11 23 32 43 40 39 43 42 44 40 37 23 7 353 341 341 335 326 318 296 298 302 299 295 296 295 271 252 250 260 293 285 283 274 241 238 246
315 319 323 326 329 333 334 337 343 344 341 347 3 17 26 27 31 29 34 29 28 21 14 16 4 344 336 333 322 314 308 303 301 300 293 287 279 283 282 283 281 275 268 263 256 253 249
302 305 308 310 311 311 312 314 318 320 323 324 330 335 341 348 3 8 6 13 11 12 16 10 350 339 331 330 318 301 302 308 305 301 297 291 286 297 296 305 289 284 274 263 254 259 265
291 294 298 300 302 302 301 300 299 301 303 306 310 309 310 317 323 331 335 324 333 321 317 324 323 317 318 330 323 316 299 290 287 290 289 287 291 310 292 300 302 292 296 274 261 269 269
281 282 284 288 291 293 292 293 293 290 289 291 293 294 295 295 302 311 314 301 311 295 304 310 313 312 314 319 319 314 306 299 287 272 273 272 285 293 287 324 252 275 296 281 286 293 267
274 275 277 279 282 284 287 289 286 284 282 281 280 281 283 286 289 295 284 302 297 289 300 304 294 299 305 308 316 318 320 318 307 287 268 259 247 265 263 289 290 305 306 308 260 289 301
273 274 274 274 275 277 278 280 283 281 278 276 276 276 277 280 287 281 286 287 292 296 297 294 282 306 302 304 305 278 266 277 273 268 259 255 232 228 232 252 259 282 293 299 295 297 289
269 271 271 272 272 272 272 272 274 275 274 274 275 277 277 279 282 284 285 291 289 288 285 292 296 295 296 293 274 270 273 256 258 251 260 243 244 236 243 249 269 296 288 290 273 287 265
265 266 266 267 271 273 272 272 272 272 272 272 270 271 277 279 282 284 283 283 280 287 289 288 293 291 289 262 259 275 251 250 255 251 270 270 269 248 230 229 266 278 285 294 298 284 284
261 262 263 265 266 268 269 271 272 272 272 272 272 273 274 276 275 279 280 285 284 285 283 280 278 280 275 265 269 257 240 254 267 268 275 250 283 273 257 269 284 280 281 294 291 284 287